sat.trackr.live / text

‹ back to catalog

STARLINK-31239

NORAD 60093 · 2024-117C

PAYLOAD ACTIVE UNKNOWN

§ Identity

Operator
Country
US
Launch date
2024-06-23
Launch site
AFETR
Launch vehicle
Mass (kg)
RCS (m²)

Purposes: comms

External: N2YO · Heavens-Above · Gunter

§ Orbital elements

Epoch: 2026-05-25T02:45:13.139424Z

Period
94.11 min
Inclination
53.1608°
Eccentricity
0.0001231
Mean motion
15.30196812 rev/d
Perigee alt
474.4 km
Apogee alt
476.1 km
Semi-major
6,853.4 km
B*
-4.6958e-6
RAAN
42.4116°
Arg perigee
81.3478°
Mean anomaly
278.7662°
Rev number
10,858

§ Raw data

STARLINK-312391 60093U 24117C   26145.11473541 -.00000498  00000+0 -46958-5 0  99962 60093  53.1608  42.4116 0001231  81.3478 278.7662 15.30196812108585

JSON: /api/v1/satellites/60093 · /tle

For live sub-satellite position, see the globe view (requires WebGL).

§ Visibility from observer

Set your observer location to see the next 7 days of passes ≥ 10°. The values pass through the URL so the page stays shareable.

No JS? Fill the form by hand. The geolocation button needs JavaScript.